Weather in Troitske

Ukraine / Luhansk Region     49°54′17″N   38°18′05″E
temp.,
°C
wind,
m/s
gust,
m/s
humid.,
%
clouds,
%
prec.,
mm/h
press.,
hPa
HPBL,
m
22 april, thu
thu2200:00+7ssw368138 0.0 1017105
03:00+6sw34875 0.1 101960
06:00+5sw23905 0.0 102063
09:00+11sw34630 0.0 1021594
12:00+15wsw45455 0.0 10211781
15:00+16sw3542100 0.0 10202027
18:00+14s3660100 0.0 1020195
21:00+11s356591 0.0 102175
23 april, fri
fri2300:00+10s337039 0.0 102152
03:00+8ssw227351 0.0 102125
06:00+8s347777 0.0 102182
09:00+13ssw466250 0.0 1020577
12:00+16sw685014 0.9 10191806
15:00+17sw6740100 1.1 10172489
18:00+16s4752100 0.0 1016404
21:00+12s41165100 0.1 1015256
24 april, sat
sat2400:00+11ssw51067100 0.3 1014534
03:00+9ssw51086100 0.9 1013473
06:00+8w6890100 0.6 1012684
09:00+5wnw588895 1.1 1014722
12:00+9w686299 0.4 10141483
15:00+11w81042100 1.1 10132264
18:00+10w795184 0.1 10131488
21:00+5wnw6108248 0.8 1016812
25 april, sun
sun2500:00+3wsw511805 0.2 1017539
03:00+4wnw597869 0.2 1018727
06:00+2w510861 0.0 1019390
09:00+7w68595 0.0 10191235
12:00+10w6841100 0.1 10202558
15:00+11w6835100 0.1 10192547
18:00+10wsw474641 0.0 1018849
21:00+6sw236091 0.0 101924
26 april, mon
mon2600:00+5ssw3563100 0.0 101886
03:00+4wsw2271100 0.0 101732
06:00+4nw2394100 0.0 1018128
09:00+7w237599 0.0 1017810
12:00+8wnw1476100 0.4 1015804
15:00+4wnw4694100 1.3 1015515
18:00+5w358846 0.2 1015540
21:00+3ssw368929 0.6 1015108